Back to catalog

COSMOS 1249 COOLANT

LostLEO
NORAD 26511·DEBRIS·🇷🇺 Russia

Launched Mar 5, 1981 from Baikonur Cosmodrome

Loading…

Next Passes (next 24 hours)

TLE

StaleSource: Space-Track

Epoch: Jul 7, 2026, 20:38 UTC

1 26511U 81021N   26188.85978101  .00000058  00000-0  11493-3 0  9995
2 26511  64.9597 268.4189 0063436 255.9844 216.4474 13.91815337650611

Track COSMOS 1249 COOLANT in real time with AllMySat

Download on the App Store